STARLINK-33601 (62768 NORAD) Tracking and Keplerian Element Data

This shows tracking and keplerian element data for the satellite.

Feedback or suggestion? Click here.




ElementValue
Catalog62768
NameSTARLINK-33601
Epoch Orbit339
Epoch Day35.25001157
Epoch Year2025
RAAN18.6774
Inclination53.1599
Eccentricity0.0001203
Argument of Perigee77.4903
Mean Anonmoly198.7632
Mean Motion15.78646989
Decay Rate-0.01044659
L11 62768U 25015L 25035.25001157 -.01044659 00000+0 -64894-2 0 9991
L22 62768 53.1599 18.6774 0001203 77.4903 198.7632 15.78646989 3396



Live tracking and technical data element details for STARLINK-33601 (NORAD 62768). STARLINK-33601 can be tracked NOW for your location showing map with azimuth and elevation plus other details from your city location.







IsCatalogInMostPopularTable: catalog: 62768, numindb: 3
Update: records affected: 1



GetName: 62768 STARLINK-33601

Hit Count: updated at: Sun, 09 Feb 2025 14:15:05 GMT